Location: Fort Worth, Tx
(32.7431°N, 97.3695°W)
Time: 09:28:24
(UTC-04:00)

A-11 Canister half - Pass Details

Date: 14 August 2024
Orbit: 1524 x 1684 km, 47.3° (Epoch: 13 September)

Event Time Altitude Azimuth Distance (km) Brightness Sun altitude
Rises 00:21:15 0° 233° (SW) 4,859 11.7 -33.3°
Reaches altitude 10° 00:24:21 10° 234° (SW) 3,891 11.1 -33.7°
Maximum altitude 00:34:25 83° 322° (NW) 1,690 9.0 -35.0°
Drops below altitude 10° 00:44:40 10° 52° (NE) 3,948 11.2 -36.3°
Sets 00:47:50 0° 53° (NE) 4,933 11.7 -36.6°
